Location: Csohesd
(46.2500°N, 22.6167°E)
Time: 04:30:52
(UTC+00:00)

ATLAS 5 CENTAUR R/B - Pass Details

Date: 21 October 2021
Orbit: 497 x 1159 km, 63.4° (Epoch: 25 November)

Event Time Altitude Azimuth Distance (km) Brightness Sun altitude
Rises 17:04:20 0° 239° (WSW) 2,608 5.8 -16.5°
Reaches altitude 10° 17:06:29 10° 247° (WSW) 1,762 4.9 -16.9°
Maximum altitude 17:10:10 40° 318° (NW) 841 2.6 -17.6°
Enters shadow 17:14:11 11° 28° (NNE) 1,939 3.9 -18.3°
